Location: Bednik
(45.3500°N, 16.3833°E)
Time: 16:12:11
(UTC+00:00)

Cosmos 2228 Rocket - Pass Details

Date: 08 August 2020
Orbit: 617 x 653 km, 82.5° (Epoch: 18 September)

Event Time Altitude Azimuth Distance (km) Brightness Sun altitude
Rises 19:11:25 0° 348° (NNW) 2,926 7.3 -9.9°
Reaches altitude 10° 19:13:40 10° 346° (NNW) 2,008 6.5 -10.3°
Maximum altitude 19:18:04 65° 265° (W) 686 3.5 -10.9°
Drops below altitude 10° 19:22:25 10° 183° (S) 1,978 5.3 -11.5°
Enters shadow 19:24:08 - 181° (S) 2,675 6.0 -11.7°
